Theta_e
339 343 346 345 344 345 345 345 345 345 344 344 342 342 345 342 341 342 345 345 344 342 341 339 339 338 335 334 334 334 333 333 334 333 333 333 333 334 334 334 337 331 335
342 343 344 346 344 345 345 344 344 344 343 342 343 343 342 341 340 339 340 343 343 341 338 336 337 336 334 333 332 332 332 332 331 330 330 333 331 332 332 331 332 330 331
341 343 343 346 346 345 345 344 343 342 341 340 340 340 339 339 339 338 338 338 342 342 339 337 336 335 333 332 332 332 332 332 329 328 332 329 329 330 333 331 330 331 330
341 342 342 343 345 345 345 344 343 343 341 340 339 338 337 335 336 336 336 336 336 338 341 338 335 333 333 332 331 330 332 331 328 330 327 327 328 330 331 329 329 329 330
342 341 342 343 344 343 344 344 344 344 342 341 339 337 335 333 333 333 335 335 334 335 339 338 336 333 332 332 331 329 328 325 326 327 327 327 328 329 329 327 326 327 328
340 341 341 344 343 342 342 343 344 344 344 341 338 336 334 334 333 333 333 331 334 333 333 338 336 335 333 332 331 329 327 325 328 325 326 326 327 330 328 327 325 325 325
339 341 342 343 344 343 341 341 342 344 342 340 339 337 336 333 333 333 333 333 332 330 331 330 332 335 335 333 332 330 328 328 329 326 324 325 327 327 330 327 325 325 324
340 341 342 338 341 342 342 342 344 344 342 341 340 339 337 336 333 332 333 332 331 330 329 330 328 328 330 330 331 332 331 329 327 326 325 325 325 325 329 331 327 326 325
342 342 343 342 339 335 339 339 342 343 343 343 342 341 340 339 338 336 335 333 332 331 330 330 330 328 328 329 328 329 328 327 323 323 322 322 324 325 329 330 331 330 329
342 342 342 343 342 342 339 333 335 339 340 339 338 336 333 335 336 335 334 335 334 334 333 332 332 331 330 329 329 329 327 326 324 325 325 323 323 325 328 330 332 332 332
339 341 342 341 342 342 341 334 330 332 334 334 334 331 331 337 336 335 332 334 336 336 336 336 335 334 333 332 331 329 326 327 327 327 327 325 322 326 329 330 333 333 333
336 338 340 341 341 341 339 339 337 336 335 335 334 334 333 336 336 334 328 330 332 332 334 336 336 334 330 331 331 327 328 328 328 327 327 327 325 328 331 331 332 333 332
336 338 339 340 341 340 340 340 339 338 337 336 336 335 335 334 335 334 334 334 335 326 334 333 333 332 332 332 332 332 331 331 330 329 328 327 328 330 332 333 333 333 333
333 336 338 339 339 339 339 339 338 337 337 337 337 336 335 334 335 335 334 334 336 335 334 335 334 334 333 332 332 331 331 331 330 330 328 324 328 330 332 334 334 334 334
333 335 337 339 339 339 339 339 338 338 337 337 337 337 336 335 335 335 335 335 334 334 333 333 333 332 332 331 331 331 330 330 330 330 331 320 325 329 332 334 334 334 334
333 334 336 337 339 339 338 339 338 339 338 338 338 338 338 336 336 335 335 334 334 334 333 333 332 332 332 331 329 330 330 330 330 331 331 331 324 328 330 332 333 334 334
332 334 335 336 338 338 338 339 339 339 338 338 338 338 338 337 336 336 335 335 335 336 335 334 333 333 332 332 330 330 330 330 330 329 328 331 330 323 326 328 330 331 332
332 332 334 335 337 338 338 338 339 339 339 339 338 338 338 338 337 336 336 336 337 337 336 334 333 332 331 329 328 329 327 328 328 328 328 329 328 329 323 325 326 327 328
331 331 332 334 335 336 337 338 339 339 339 339 339 338 338 338 337 337 336 337 336 336 334 331 330 330 329 329 328 328 327 326 326 326 326 326 326 326 326 321 321 323 328
329 330 331 332 333 334 335 336 337 337 337 338 338 338 338 337 337 337 336 336 336 335 333 331 329 329 331 330 326 326 328 329 328 327 326 325 324 324 324 320 318 317 322
321 321 322 322 325 327 329 330 331 332 334 335 338 337 335 333 330 330 330 329 329 328 329 329 327 326 329 331 326 326 327 328 328 328 328 328 326 324 322 315 312 311 313
318 319 319 319 319 321 322 324 326 326 327 327 328 325 324 324 325 325 326 325 325 325 324 324 325 324 328 330 325 323 318 322 327 323 319 318 311 311 307 308 308 309 308
315 316 317 318 318 319 320 321 320 320 319 319 320 321 322 324 324 325 325 325 324 324 323 325 326 325 324 328 329 323 317 315 320 310 301 301 302 303 303 301 301 303 305
312 314 315 316 316 317 317 316 316 316 316 319 320 321 321 320 320 321 321 321 322 324 325 326 327 326 324 322 326 326 327 323 316 309 302 296 294 295 296 297 298 298 300
311 311 313 314 313 312 311 311 312 313 315 317 317 318 319 319 318 318 317 318 318 319 321 321 321 323 324 322 321 322 323 323 322 317 307 298 294 293 292 293 294 295 297
309 309 310 310 309 308 308 308 309 310 312 313 316 317 317 318 318 317 315 313 313 313 314 317 319 320 320 320 322 320 319 318 316 317 313 301 299 290 290 292 292 293 293
Wind_Speed
11 15 11 12 12 10 11 11 11 11 10 11 11 9 11 11 11 12 12 12 14 13 13 11 12 12 12 12 12 12 12 12 11 11 12 13 13 12 13 15 12 12 14
15 15 11 10 13 10 11 11 11 10 9 9 10 10 10 9 10 10 10 10 11 11 12 10 10 11 11 11 11 10 10 10 9 5 4 14 11 10 11 13 13 10 11
15 16 13 9 10 11 11 10 9 8 8 8 8 7 7 7 7 8 8 8 9 7 10 11 9 9 10 10 11 11 9 9 6 4 8 7 10 9 10 10 10 9 8
14 14 13 10 8 8 10 12 10 9 8 8 7 6 6 5 5 6 6 7 7 8 8 10 8 8 8 9 10 10 10 7 4 7 2 6 8 9 8 7 7 8 7
14 11 14 11 10 7 6 8 10 10 10 8 7 5 6 5 5 4 5 6 6 5 8 6 9 7 7 8 8 8 7 4 5 7 4 5 4 8 6 6 4 5 8
12 11 13 12 11 9 5 4 9 10 10 9 7 6 6 6 5 5 3 4 5 4 4 8 3 7 7 6 5 5 4 5 9 4 3 4 3 4 4 4 4 3 3
11 11 12 11 10 10 8 6 3 9 10 8 8 7 7 6 5 5 4 5 4 2 2 3 3 5 5 4 3 2 1 4 7 2 1 2 4 2 3 1 2 1 1
12 11 12 10 10 9 9 8 8 10 9 8 8 9 9 8 6 6 6 5 4 3 3 2 1 0 1 1 1 1 2 5 7 3 3 2 6 1 5 5 4 3 2
14 13 12 12 10 7 8 8 7 7 9 8 7 6 8 9 9 8 7 7 7 5 4 4 3 3 3 3 3 3 4 5 8 4 4 3 5 2 6 7 6 7 6
12 11 11 11 10 9 9 6 5 5 7 7 6 5 5 7 8 8 7 8 8 7 6 6 6 6 5 5 5 4 5 8 9 4 4 1 4 4 7 8 8 8 10
10 10 10 9 9 8 8 9 7 6 5 5 6 6 4 7 10 10 9 3 9 7 7 8 8 8 7 8 9 8 6 7 5 4 4 7 2 6 8 9 10 10 10
11 10 9 9 8 7 5 7 8 8 8 8 8 9 8 9 7 4 1 7 7 8 9 9 9 8 7 8 7 8 6 7 5 5 4 7 3 8 9 9 11 11 11
10 8 9 8 8 7 6 5 4 4 5 6 8 8 7 6 5 5 5 6 7 10 8 10 9 8 10 7 6 5 5 5 5 5 4 8 7 10 10 11 12 12 12
10 10 10 9 8 8 5 5 5 5 5 5 6 8 6 5 6 6 5 6 5 5 7 7 5 7 8 8 9 8 8 7 5 4 5 11 10 11 12 14 13 13 13
10 9 10 10 9 8 9 6 6 6 6 6 6 7 7 7 6 6 6 6 6 6 6 7 7 7 8 9 9 9 9 9 9 5 4 10 10 12 14 14 14 14 13
10 10 10 10 10 10 9 9 7 6 7 7 7 7 10 8 7 7 7 7 7 7 7 7 7 7 7 7 9 9 9 9 9 8 6 6 12 13 13 13 13 13 12
9 9 10 10 10 11 11 9 8 7 7 7 7 9 10 9 9 9 7 7 7 7 8 7 8 8 8 7 8 7 7 8 8 10 8 7 6 12 9 11 13 12 11
9 10 10 8 10 11 11 9 8 8 8 8 8 8 10 10 11 9 7 8 8 7 7 7 8 7 7 7 7 8 6 7 8 9 7 7 5 3 7 8 8 7 7
9 10 11 11 11 12 11 10 9 10 8 8 8 7 9 10 11 9 8 8 9 7 7 7 9 9 8 8 7 8 7 8 9 8 9 8 2 1 2 4 1 3 7
10 11 11 9 11 11 8 8 8 7 8 9 8 8 10 8 9 8 8 9 8 7 7 6 8 8 9 8 7 8 9 8 8 7 8 6 6 5 5 7 4 5 8
9 10 10 11 11 8 7 7 7 7 7 7 6 8 8 7 7 7 6 7 7 7 8 8 9 11 9 8 7 7 9 10 11 9 8 8 6 4 8 7 5 5 6
9 10 9 10 10 9 7 6 6 4 5 6 3 5 6 6 5 6 6 6 7 6 10 10 10 9 9 8 5 6 6 6 7 6 8 6 6 4 6 6 4 4 5
10 8 8 8 8 6 7 5 3 4 3 4 4 4 4 4 4 4 6 6 6 6 7 8 8 9 8 6 10 6 4 4 2 5 8 6 7 5 5 4 5 4 5
9 8 7 7 5 4 3 5 7 6 5 3 2 2 3 4 5 5 5 6 7 5 7 6 5 5 5 6 7 7 11 8 4 2 2 4 6 6 5 2 3 2 6
7 7 6 4 3 1 2 3 3 4 4 3 4 5 5 5 5 5 5 5 5 4 5 5 5 5 5 6 6 7 9 7 6 8 3 3 2 3 4 4 3 3 3
5 5 4 3 1 0 2 3 4 4 5 4 5 4 4 3 3 4 5 5 4 4 4 5 5 6 5 7 5 5 8 7 4 6 2 2 4 3 2 2 2 2 3
Wind_Direction
145 129 149 147 146 140 125 128 123 121 109 90 129 121 96 84 68 62 65 89 94 86 81 73 70 70 70 68 67 67 67 66 66 66 70 65 68 68 50 32 44 57 56
137 139 147 157 149 145 135 126 123 118 112 103 97 94 89 83 72 63 58 64 84 99 92 74 72 74 71 66 63 66 67 67 60 46 79 100 63 65 54 46 39 51 46
135 130 152 148 149 151 144 137 135 132 124 113 102 97 90 80 75 71 66 61 61 76 97 91 78 77 73 67 65 62 70 72 48 335 307 79 83 50 58 51 51 44 48
138 140 138 139 153 145 160 152 150 144 133 122 111 102 93 85 82 79 79 73 60 45 68 106 96 87 79 69 65 64 65 67 0 300 74 48 78 53 57 50 47 44 41
135 144 126 137 147 152 146 165 165 159 150 133 121 113 104 102 95 100 104 97 81 61 37 112 125 108 92 79 71 66 62 42 301 288 66 42 38 71 66 38 86 69 36
138 131 131 138 149 154 159 170 191 174 149 143 138 136 125 120 110 115 105 107 91 81 46 50 101 124 110 95 85 72 53 348 308 50 29 114 48 52 81 68 63 52 28
136 126 145 148 155 160 168 173 158 165 149 154 156 157 151 147 146 138 128 123 128 127 94 60 57 97 103 123 101 121 78 318 319 357 340 358 82 41 332 134 103 73 346
144 145 144 157 161 168 175 174 157 162 167 169 186 184 174 172 175 179 183 186 193 201 213 191 34 40 167 150 204 207 258 297 287 296 301 275 92 313 291 298 225 216 220
154 164 164 171 169 173 184 185 181 197 183 184 207 214 217 182 184 194 200 206 208 210 220 222 223 239 248 248 247 244 256 276 294 304 303 282 108 275 280 278 272 243 241
160 172 175 174 174 179 179 190 188 192 187 196 217 241 298 202 195 203 211 218 223 222 227 229 230 235 246 255 256 252 264 270 262 280 256 114 89 276 274 270 269 268 250
172 182 183 181 183 184 182 170 188 204 212 221 229 230 237 214 201 217 218 214 211 236 246 240 231 232 239 243 232 233 253 263 275 276 275 116 180 261 272 266 269 281 271
184 189 190 191 195 195 190 174 207 195 208 212 220 220 216 231 239 263 318 191 221 240 248 250 247 242 240 261 209 210 235 256 277 270 272 138 216 260 268 271 269 275 282
187 187 198 196 199 202 202 206 200 213 210 217 220 219 224 231 231 224 240 211 226 217 239 221 228 229 241 248 264 250 260 262 260 259 255 162 214 246 257 262 266 273 276
199 195 192 202 199 206 215 204 217 212 211 220 218 221 228 228 234 243 236 236 229 241 230 240 243 242 249 248 257 269 267 265 266 261 260 177 205 236 250 256 262 267 272
199 201 201 200 208 206 210 218 220 221 211 225 221 217 225 233 234 238 239 240 241 237 240 239 242 245 244 248 254 251 257 262 265 266 266 185 200 230 246 256 262 265 272
204 207 202 205 212 213 218 223 227 226 228 223 229 220 215 232 237 238 240 241 244 240 244 242 244 242 238 250 257 256 257 259 262 261 264 258 202 217 238 251 258 263 268
208 211 216 210 214 222 223 226 228 232 231 234 232 229 230 227 237 245 251 251 250 246 245 257 250 246 249 245 238 245 250 243 248 264 263 255 251 201 208 240 249 257 263
220 214 220 214 221 224 229 230 231 234 234 231 233 234 231 234 239 245 246 249 253 256 250 242 246 245 245 248 250 246 232 244 252 253 251 252 241 198 185 216 245 242 239
240 235 229 225 225 229 234 239 240 240 237 239 238 235 237 236 239 245 252 258 257 254 254 261 260 255 252 239 236 251 252 228 227 232 239 251 358 159 184 113 108 247 227
241 245 246 239 229 236 235 237 245 240 239 242 239 237 238 242 245 247 257 264 269 269 261 245 254 255 247 246 247 238 245 245 246 241 236 227 204 186 183 130 106 59 71
258 262 258 249 243 243 236 235 241 241 240 243 247 255 259 262 259 260 264 275 278 273 269 259 254 252 250 240 248 266 261 245 242 236 235 222 196 126 134 133 131 112 83
287 279 267 263 255 244 237 235 252 269 257 262 219 244 249 262 263 270 276 280 285 284 274 272 272 266 260 255 249 246 271 261 229 38 23 40 63 82 99 108 96 104 107
288 293 282 266 263 248 229 240 244 259 261 257 243 246 250 288 283 262 269 269 260 247 252 257 256 265 260 243 246 237 261 236 64 38 43 38 49 43 54 68 83 78 80
332 338 314 293 267 258 236 239 243 250 265 287 339 333 270 246 265 264 267 270 274 277 282 261 259 255 294 274 278 253 252 257 262 184 95 59 52 61 23 24 110 116 97
343 340 321 336 319 42 254 283 288 267 283 280 271 265 264 263 254 262 258 263 264 271 277 280 280 260 257 256 260 279 276 284 270 253 199 156 88 79 60 357 96 96 105
359 360 359 346 272 224 242 228 261 275 280 284 278 272 267 256 263 249 250 260 262 271 280 282 290 283 286 285 269 263 265 258 254 252 239 145 172 151 117 114 330 55 37